Regional Weather Roundup
Issued by NWS

Home | Current Version | Previous Version | Graphics & Text | Print | Product List | Glossary Off
Versions: 1 2 3 4 5 6 7 8 9 10 11 12 13 14 15 16 17 18 19 20 21 22 23 24 25 26 27 28 29 30 31 32 33 34 35 36 37 38 39 40 41 42 43 44 45 46 47 48 49 50

000
ASUS43 KMPX 280901
RWRMN
WEATHER ROUNDUP FOR MINNESOTA
NATIONAL WEATHER SERVICE TWIN CITIES/CHANHASSEN MN
300 AM CST SAT FEB 28 2015


NOTE: "FAIR" INDICATES FEW OR NO CLOUDS BELOW 12,000 FEET WITH NO
SIGNIFICANT WEATHER AND/OR OBSTRUCTIONS TO VISIBILITY. N/A MEANS
CURRENT SKY AND/OR WEATHER CONDITIONS ARE NOT AVAILABLE.

MNZ060>063-068>070-281000-
   Twin Cities Metro

CITY           SKY/WX    TMP DP  RH WIND       PRES   REMARKS
TWIN CITIES    CLEAR      3  -4  72 S6        30.53S WCI  -8
ST PAUL        CLEAR      1  -4  79 S8        30.55F WCI -13
CRYSTAL        CLEAR      2  -3  80 S5        30.50F WCI  -8
BLAINE         CLEAR      3  -2  78 S6        30.50F WCI  -8
LAKEVILLE      CLEAR     -8  -9  92 S3        30.52S
EDEN PRAIRIE   CLEAR      0  -5  79 S8        30.50F WCI -14
SOUTH ST PAUL  CLEAR      0  -4  82 SE3       30.54S
LAKE ELMO      FAIR       0  -4  85 S5        30.53S WCI -10
$$
MNZ001>005-007-008-013>017-022>024-027-028-281000-
   Northwest Minnesota

CITY           SKY/WX    TMP DP  RH WIND       PRES   REMARKS
BEMIDJI        PTCLDY    -4  -8  82 S5        30.31F WCI -15
HALLOCK        PTCLDY     0  -8  71 SE16      30.26F WCI -21
ROSEAU         FAIR       1  -6  71 S10       30.27F WCI -14
WARROAD        PTCLDY     3  -4  72 SW6       30.27F WCI  -8
THIEF RVR FALL MOCLDY     1  -4  78 S8        30.29F WCI -12
CROOKSTON      PTCLDY     5   0  78 S14       30.31F WCI -12
FOSSTON        PTCLDY     3  -4  72 S9        30.29F WCI -11
DETROIT LAKES  PTCLDY     1  -2  85 S9        30.33F WCI -14
MOORHEAD       PTCLDY     7   1  78 S14       30.33F WCI -10
PARK RAPIDS    CLEAR     -3  -7  82 S7        30.34S WCI -16
MAHNOMEN       FAIR       5  -2  73 S12       30.31F WCI -10
$$
MNZ006-009>011-018-025>026-281000-
   North Central Minnesota

CITY           SKY/WX    TMP DP  RH WIND       PRES   REMARKS
BAUDETTE       PTCLDY    -3  -8  79 S6        30.28F WCI -15
FLAG ISLAND    CLEAR     -4  -9  77 SE8       30.26F WCI -19
INTL FALLS     PTCLDY    -1 -10  65 S7        30.31F WCI -14
WASKISH        FAIR       1  -4  78 CALM      30.31F
BIG FORK       PTCLDY    -8 -15  71 S5        30.33F WCI -19
LONGVILLE      CLEAR      0  -6  78 S3        30.37F
GRAND RAPIDS   CLEAR      0  -8  71 S6        30.35F WCI -12
CRANE LAKE     PTCLDY   -18 -24  76 CALM      30.38S
ORR            PTCLDY    -2 -11  65 CALM      30.32F
COOK           PTCLDY     1  -8  66 S3        30.36S
WALKER         FAIR       1  -5  76 SW6       30.34F WCI -10
$$
MNZ012-019>021-037-281000-
   Northeast Minnesota

CITY           SKY/WX    TMP DP  RH WIND       PRES   REMARKS
DULUTH         PTCLDY     2  -6  69 SW8       30.39S WCI -12
ELY            CLEAR    -11 -18  70 SW2       30.35F
HIBBING        PTCLDY   -16 -23  70 CALM      30.38R
EVELETH        PTCLDY   -15 -24  64 CALM      30.39S
DULUTH HARBOR  CLEAR      3  -4  72 SW5       30.49S WCI  -6
TWO HARBORS    PTCLDY     1  -8  66 CALM      30.40S
SILVER BAY     CLEAR     -6 -13  71 CALM      30.39S
GRAND MARAIS     N/A      7  -6  55 W8        30.43R WCI  -6
G MARAIS ARPRT CLEAR      1 -11  55 W7        30.30F WCI -11
$$
MNZ029>031-032-039>041-046>048-054>057-064-281000-
   West Central Minnesota

CITY           SKY/WX    TMP DP  RH WIND       PRES   REMARKS
FERGUS FALLS   PTCLDY     3  -4  72 SE10      30.39F WCI -12
WHEATON        PTCLDY     0  -6  78 SE12      30.37F WCI -18
MORRIS         CLEAR      0  -6  78 SE9       30.37F WCI -16
ALEXANDRIA     CLEAR      3  -3  76 S12       30.36F WCI -13
ELBOW LAKE     FAIR       1  -4  80 SE12      30.35F WCI -16
WADENA         FAIR      -8 -11  84 SE3       30.35F
APPLETON       CLEAR      3  -2  78 S8        30.40F WCI -10
BENSON         CLEAR      1  -6  71 S8        30.40F WCI -12
ORTONVILLE       N/A     -2  -8  78 SE8       30.36F WCI -17
MADISON        CLEAR      0  -6  78 S7        30.39F WCI -13
WILLMAR        FAIR      -2  -8  78 SE5       30.44S WCI -12
$$
MNZ033>034-036-042>043-049>051-058-059-281000-
   Central Minnesota

CITY           SKY/WX    TMP DP  RH WIND       PRES   REMARKS
ST CLOUD       CLEAR     -1  -6  79 SE6       30.46F WCI -13
SAUK CENTRE    FAIR      -1  -5  83 SE7       30.41F WCI -14
PAYNESVILLE    CLEAR     -1  -5  81 SE6       30.43F WCI -12
AITKIN         CLEAR      0  -8  71 S5        30.39F WCI -10
PINE RIVER     CLEAR     -6  -9  84 CALM      30.40F
BRAINERD       CLEAR     -4  -7  87 S5        30.40F WCI -15
STAPLES        CLEAR     -2  -8  78 SE3       30.38F
LONG PRAIRIE   FAIR       0  -4  85 SE7       30.39F WCI -13
LITTLE FALLS   PTCLDY     1  -4  78 SE3       30.43F
LITCHFIELD     CLEAR      0  -6  78 CALM      30.45F
MAPLE LAKE     CLEAR      1  -2  85 S3        30.48F
$$
MNZ037-044-045-052-053-281000-
   East Central Minnesota

CITY           SKY/WX    TMP DP  RH WIND       PRES   REMARKS
PRINCETON      CLEAR      0  -4  85 S3        30.47F
MORA           CLEAR     -8 -13  77 CALM      30.49S
RUSH CITY      PTCLDY    -2  -5  85 S5        30.49F WCI -12
MOOSE LAKE     CLEAR     -6  -9  84 CALM      30.43F
HINCKLEY       FAIR      -4  -6  92 CALM      30.47F
CLOQUET        CLEAR      0  -8  71 SW5       30.41S WCI -10
MCGREGOR       PTCLDY     1  -4  78 S5        30.41F WCI  -8
$$
MNZ071>073-080-081-089-090-097-098-281000-
   Southwest Minnesota

CITY           SKY/WX    TMP DP  RH WIND       PRES   REMARKS
MONTEVIDEO     CLEAR      0  -6  78 SW6       30.42F WCI -12
GRANITE FALLS  CLEAR     -3  -8  79 SE10      30.45F WCI -20
CANBY          CLEAR      9   1  68 S12G17    30.39F WCI  -6
MARSHALL       CLEAR      3  -4  72 S14       30.41F WCI -15
REDWOOD FALLS  CLEAR     -3  -8  79 S9        30.46S WCI -19
OLIVIA         CLEAR     -4  -8  84 SE7       30.45F WCI -18
PIPESTONE      CLEAR     -2  -8  78 S7        30.36F WCI -16
WINDOM         CLEAR      0  -6  78 S6        30.43F WCI -12
WORTHINGTON    PTCLDY    21 -11  23 S12       30.42F WCI   9
JACKSON        CLEAR      1  -6  71 S10       30.44F WCI -14
TRACY          CLEAR      6  -1  74 S12       30.41F WCI -10
SLAYTON        CLEAR      1  -4  77 S9        30.39F WCI -14
$$
MNZ065>067-074>077-082>085-091>093-281000-
   South Central Minnesota

CITY           SKY/WX    TMP DP  RH WIND       PRES   REMARKS
MANKATO        CLEAR     -4 -11  71 S8        30.49F WCI -19
NEW ULM        CLEAR     -4  -9  77 S9        30.47F WCI -20
ST JAMES       CLEAR     -2  -8  78 S7        30.48F WCI -16
FAIRMONT       CLEAR     -8 -13  77 S8        30.46F WCI -23
GLENCOE        CLEAR      0  -4  82 S5        30.48F WCI -10
FARIBAULT      FAIR      -6  -9  84 S5        30.51F WCI -17
OWATONNA       CLEAR     -2  -8  78 SE9       30.50F WCI -18
WASECA         PTCLDY    -4  -8  84 S7        30.52F WCI -18
ALBERT LEA     PTCLDY    -4  -8  84 S5        30.50F WCI -15
$$
MNZ078>079-086>088-094>096-281000-
   Southeast Minnesota

CITY           SKY/WX    TMP DP  RH WIND       PRES   REMARKS
ROCHESTER      PTCLDY   -10 -14  82 S7        30.50F WCI -25
RED WING       CLEAR     -2  -8  78 S3        30.55F
STANTON        CLEAR     -1  -6  80 S6        30.52S WCI -13
DODGE CENTER   PTCLDY    -9 -13  84 S7        30.49F WCI -24
WINONA         CLEAR     -4  -8  84 CALM      30.61F
AUSTIN         MOCLDY    -8 -11  84 S6        30.51F WCI -21
PRESTON        MOCLDY    -8 -12  82 S7        30.53F WCI -23
$$
ABBREVIATIONS USED IN REMARKS
   TC - TEMPERATURES IN CELSIUS
  WCI - WIND CHILL INDEX
   HX - HEAT INDEX
  VSB - VISIBILITY
$$


USA.gov is the U.S. government's official web portal to all federal, state and local government web resources and services.